Regional Weather Roundup
Issued by NWS

Home | Current Version | Previous Version | Text Only | Print | Product List | Glossary On
Versions: 1 2 3 4 5 6 7 8 9 10 11 12 13 14 15 16 17 18 19 20 21 22 23 24 25 26 27 28 29 30 31 32 33 34 35 36 37 38 39 40 41 42 43 44 45 46 47 48 49 50
000
ASUS43 KMKX 250000
RWRWI

WISCONSIN REGIONAL WEATHER ROUNDUP
NATIONAL WEATHER SERVICE MILWAUKEE/SULLIVAN WI
700 PM CDT WED AUG 24 2016

NOTE: "FAIR" INDICATES FEW OR NO CLOUDS BELOW 12,000 FEET WITH NO
SIGNIFICANT WEATHER AND/OR OBSTRUCTIONS TO VISIBILITY.

WIZ001-002-006>008-014>016-023>028-250100-
NORTHWEST WISCONSIN

CITY           SKY/WX    TMP DP  RH WIND       PRES   REMARKS
SUPERIOR ARPT  PTCLDY    77  56  49 W12       29.85F
ASHLAND        CLOUDY    74  59  59 SW7       29.86R
6HR MIN TEMP:  74; 6HR MAX TEMP:  81;

HAYWARD        CLOUDY    73  58  59 SW7       29.91S
6HR MIN TEMP:  73; 6HR MAX TEMP:  79;

SIREN          CLOUDY    72  57  58 W7        29.93R
CUMBERLAND     PTCLDY    72  59  64 W6        29.94R
RICE LAKE      PTCLDY    72  59  64 W6        29.94S
CHETEK         NOT AVBL
LADYSMITH      PTCLDY    76  64  67 W12       29.94R
EAU CLAIRE     NOT AVBL
MENOMONIE      MOCLDY    75  58  56 W9        29.93R
6HR MIN TEMP:  75; 6HR MAX TEMP:  80;

NEW RICHMOND   CLOUDY    71  56  59 W7        29.95F
OSCEOLA        CLOUDY    72  57  59 W10       29.97S
$$

WIZ003>005-009-010-017-018-250100-
NORTH CENTRAL WISCONSIN

CITY           SKY/WX    TMP DP  RH WIND       PRES   REMARKS
MANITOWISH WTR NOT AVBL
ARBOR VITAE    CLOUDY    72  66  82 W6        29.91R
WOODRUFF       CLOUDY    72  66  82 W6        29.91R
RHINELANDER    CLEAR     72  67  84 W8        29.92R
6HR MIN TEMP:  70; 6HR MAX TEMP:  77; 6HR PCP:  0.01;

EAGLE RIVER    CLOUDY    71  63  75 W9        29.91R
LAND O LAKES   CLOUDY    73  65  78 W7        29.91R
PHILLIPS       CLOUDY    73  65  76 W5        29.91S
6HR MIN TEMP:  70; 6HR MAX TEMP:  75;

TOMAHAWK       PTCLDY    72  65  77 W5        29.92S
MEDFORD        CLOUDY    73  66  81 W9        29.93S
MERRILL        PTCLDY    74  67  77 W8        29.92S
$$

WIZ029-030-035-036-043>047-250100-
CENTRAL WISCONSIN

CITY           SKY/WX    TMP DP  RH WIND       PRES   REMARKS
WAUSAU         MOCLDY    74  66  76 W8        29.91R
6HR MIN TEMP:  69; 6HR MAX TEMP:  79; 6HR PCP: TRACE;

MOSINEE        PTCLDY    73  70  88 W8        29.93S
MARSHFIELD     MOCLDY    74  66  76 W7        29.93S
6HR MIN TEMP:  74; 6HR MAX TEMP:  81;

STEVENS POINT  PTCLDY    74  67  77 W6        29.92S
WAUPACA        PTCLDY    79  70  74 W3        29.90S HX  82
WAUTOMA        PTCLDY    77  71  82 W6        29.93R
6HR MIN TEMP:  75; 6HR MAX TEMP:  80; 6HR PCP:  0.33;

WISC RAPIDS    PTCLDY    76  69  79 W6        29.93S
6HR MIN TEMP:  71; 6HR MAX TEMP:  80; 6HR PCP:  0.01;

CAMP DOUGLAS   NOT AVBL
$$

WIZ011>013-019>022-031-037>040-048>050-250100-
NORTHEAST WISCONSIN

CITY           SKY/WX    TMP DP  RH WIND       PRES   REMARKS
ANTIGO         CLOUDY    72  65  78 W3        29.92S
SHAWANO        PTCLDY    78  68  70 W7        29.89R HX  80
OCONTO         NOT AVBL
STURGEON BAY   CLEAR     76  69  79 W7        29.88R
6HR MIN TEMP:  74; 6HR MAX TEMP:  79; 6HR PCP:  0.03;

GREEN BAY      CLEAR     75  70  84 W7        29.89R
6HR MIN TEMP:  75; 6HR MAX TEMP:  81;

MANITOWOC      NOT AVBL
APPLETON       MOCLDY    75  66  73 W7        29.90R
CLINTONVILLE   CLEAR     77  68  73 W5        29.89S
OSHKOSH        CLEAR     77  70  79 W5        29.91R
6HR MIN TEMP:  77; 6HR MAX TEMP:  81;

$$

WIZ032>034-041-042-053>061-250100-
SOUTHWEST WISCONSIN

CITY           SKY/WX    TMP DP  RH WIND       PRES   REMARKS
LA CROSSE      PTCLDY    79  32  18 NW7       29.93S
6HR MIN TEMP:  77; 6HR MAX TEMP:  85; 6HR PCP: TRACE;

SPARTA         MOCLDY    76  69  79 W3        29.94S
VIROQUA        PTCLDY    75  70  83 NW3       29.96R
6HR MIN TEMP:  73; 6HR MAX TEMP:  81;

BOSCOBEL       PTCLDY    81  73  76 SW6       29.93R HX  86
6HR MIN TEMP:  81; 6HR MAX TEMP:  88; 6HR PCP: TRACE;

PRAIRIE DU CHI MOCLDY    79  70  74 SW3       29.93S HX  81
PLATTEVILLE    PTCLDY    79  74  86 W7        29.95S HX  83
$$

WIZ056-057-062-063-064-067-068-250100-
SOUTH CENTRAL WISCONSIN

CITY           SKY/WX    TMP DP  RH WIND       PRES   REMARKS
REEDSBURG      NOT AVBL
BARABOO/DELLS  PTCLDY    79  72  78 W5        29.92S HX  82
LONE ROCK      NOT AVBL
MINERAL POINT  MOCLDY    81  73  78 W7        29.95R HX  85
MADISON        MOCLDY    80  74  81 CALM      29.91S HX  85
6HR MIN TEMP:  79; 6HR MAX TEMP:  84;

MIDDLETON      MOCLDY    80  74  82 NW5       29.93S HX  85
WATERTOWN      CLOUDY    80  74  82 SW3       29.91S HX  85
MONROE         PTCLDY    81  72  74 SW9       29.94S HX  84
JANESVILLE     PTCLDY    82  73  74 SW7       29.93R HX  88
$$

WIZ051-052-058>065-066-070>072-250100-
SOUTHEAST WISCONSIN

CITY           SKY/WX    TMP DP  RH WIND       PRES   REMARKS
MILWAUKEE      MOCLDY    85  71  63 W8        29.91S HX  90
6HR MIN TEMP:  81; 6HR MAX TEMP:  87;

WAUKESHA       PTCLDY    79  70  73 W10       29.93S HX  81
MILWAUKEE/TIMM NOT AVBL
RACINE         CLEAR     82  71  69 W7        29.93R HX  86
6HR MIN TEMP:  78; 6HR MAX TEMP:  84;

BURLINGTON     CLEAR     81  70  70 W5        29.93S HX  84
KENOSHA        CLEAR     81  72  74 W7        29.93R HX  85
6HR MIN TEMP:  77; 6HR MAX TEMP:  84; 6HR PCP: TRACE;

FOND DU LAC    CLOUDY    79  71  76 W7        29.92R HX  82
6HR MIN TEMP:  77; 6HR MAX TEMP:  81;

SHEBOYGAN      CLOUDY    79  70  74 W12       29.91R HX  82
6HR MIN TEMP:  77; 6HR MAX TEMP:  83;

WEST BEND      CLOUDY    79  70  73 W8G16     29.91S HX  81
JUNEAU         PTCLDY    78  72  80 W6        29.93R HX  81
$$

LSZ147-162-250100-
LAKE SUPERIOR

STATION/POSITION TIME  TEMP    WIND        PRES    WAVE
                       AIR SEA DIR/SP/G            HT/PER
                 (UTC) (F)     (DEG/KT/KT) (MB)    (FT/S)
W MID LAKE BUOY  2250   71 69  210/ 12/ 16 1007.9F   1/ 3
DEVILS ISLAND    2300   72     240/ 16/ 18 1009.0R
PORT WING        2300   79     240/ 11/ 17 1010.8
SAXON HARBOR     2300   79     240/  5/  9 1010.2R
$$

LMZ867-665-643>646-250100-
LAKE MICHIGAN

STATION/POSITION TIME  TEMP    WIND        PRES    WAVE
                       AIR SEA DIR/SP/G            HT/PER
                 (UTC) (F)     (DEG/KT/KT) (MB)    (FT/S)
CHAMBERS ISLAND  2300   75     200/  6/ 13 1010.8R
S GREEN BAY BUOY 2330   76 73  250/  8/ 10 1011.2R
N MID LAKE BUOY  2250   71 70  210/ 14/ 17 1009.7F   7/ 7
NORTHPORT PIER   2300   77     240/  8/ 13 1010.5S
SISTER BAY       2307   77     240/ 13/ 15   N/A
ALGOMA LAKESHORE 2315          310/  4/  8   N/A
KEWAUNEE LAKESHO 2300   80                 1011.1R
SHEBOYGAN LAKESH 2300   81     270/ 10/ 13 1011.2R
PORT WASHINGTON  2300   85     260/  8/ 13 1012.5
ATWATER BUOY     2300   74 45  270/ 10/ 12   N/A
MILWAUKEE LAKESH 2310   83     270/ 11/ 13   N/A
S MID LAKE BUOY  2250   75 74  180/  8/  8 1012.3S   3/ 6
KENOSHA   LAKESH 2300   83     280/ 10/ 16 1012.5R
$$

TC  - TEMPERATURE IN CELSIUS
VSB - VISIBILITY IN STATUTE MILES
WCI - WIND CHILL INDEX
HX  - HEAT INDEX




USA.gov is the U.S. government's official web portal to all federal, state and local government web resources and services.